Location: Newark
(43.0000°N, 1.6781°W)
Time: 23:52:01
(UTC+00:00)

Tiangong - Pass Details

Date: 29 September 2021
Orbit: 382 x 384 km, 41.5° (Epoch: 20 October)

Event Time Altitude Azimuth Distance (km) Brightness Sun altitude
Exits shadow 04:10:54 30° 145° (SE) 708 2.5 -20.9°
Drops below altitude 10° 04:13:23 10° 95° (E) 1,396 4.9 -20.4°
Sets 04:15:34 0° 85° (E) 2,250 6.4 -20.0°
